10-12-2022, 00:00:03,    248,    0.0,   -3.4,   0.00,   0.00, 1006.4,    0.1, -999.0
10-12-2022, 00:00:13,    248,    0.0,   -3.4,   0.00,   0.00, 1006.4,    0.1, -999.0
10-12-2022, 00:00:23,    248,    0.0,   -3.5,   0.00,   0.00, 1006.5,    0.0, -999.0
10-12-2022, 00:00:33,    248,    0.0,   -3.4,   0.00,   0.00, 1006.5,    0.1, -999.0
10-12-2022, 00:00:43,    250,    0.0,   -3.4,   0.00,   0.00, 1006.5,    0.1, -999.0
10-12-2022, 00:00:53,    250,    0.0,   -3.4,   0.00,   0.00, 1006.5,    0.1, -999.0
10-12-2022, 00:01:03,    249,    0.1,   -3.3,   0.00,   0.00, 1006.5,    0.3, -999.0
10-12-2022, 00:01:13,    250,    0.0,   -3.3,   0.00,   0.00, 1006.5,    0.0, -999.0
10-12-2022, 00:01:23,    250,    0.0,   -3.5,   0.00,   0.00, 1006.4,    0.1, -999.0
10-12-2022, 00:01:33,    250,    0.0,   -3.5,   0.00,   0.00, 1006.4,    0.0, -999.0
10-12-2022, 00:01:43,    250,    0.0,   -3.4,   0.00,   0.00, 1006.4,    0.1, -999.0
10-12-2022, 00:01:53,    250,    0.0,   -3.4,   0.00,   0.00, 1006.4,    0.1, -999.0
10-12-2022, 00:02:03,    250,    0.0,   -3.4,   0.00,   0.00, 1006.4,    0.0, -999.0
10-12-2022, 00:02:13,    250,    0.0,   -3.4,   0.00,   0.00, 1006.4,    0.0, -999.0
10-12-2022, 00:02:23,    251,    0.0,   -3.4,   0.00,   0.00, 1006.4,    0.0, -999.0
10-12-2022, 00:02:33,    250,    0.0,   -3.4,   0.00,   0.00, 1006.4,    0.1, -999.0
10-12-2022, 00:02:43,    250,    0.0,   -3.5,   0.00,   0.00, 1006.4,    0.1, -999.0
10-12-2022, 00:02:53,    250,    0.0,   -3.5,   0.00,   0.00, 1006.4,    0.0, -999.0
10-12-2022, 00:03:03,    250,    0.0,   -3.5,   0.00,   0.00, 1006.4,    0.2, -999.0
10-12-2022, 00:03:13,    250,    0.0,   -3.4,   0.00,   0.00, 1006.4,    0.1, -999.0
10-12-2022, 00:03:23,    251,    0.0,   -3.5,   0.00,   0.00, 1006.4,    0.1, -999.0
10-12-2022, 00:03:33,    250,    0.0,   -3.5,   0.00,   0.00, 1006.4,    0.1, -999.0
10-12-2022, 00:03:43,    251,    0.0,   -3.5,   0.00,   0.00, 1006.4,    0.2, -999.0
10-12-2022, 00:03:53,    251,    0.0,   -3.6,   0.00,   0.00, 1006.4,    0.0, -999.0
10-12-2022, 00:04:03,    251,    0.0,   -3.5,   0.00,   0.00, 1006.4,    0.0, -999.0
10-12-2022, 00:04:12,    251,    0.0,   -3.5,   0.00,   0.00, 1006.4,    0.0, -999.0
10-12-2022, 00:04:23,    250,    0.0,   -3.4,   0.00,   0.00, 1006.4,    0.1, -999.0
10-12-2022, 00:04:33,    251,    0.0,   -3.5,   0.00,   0.00, 1006.4,    0.0, -999.0
10-12-2022, 00:04:42,    251,    0.0,   -3.5,   0.00,   0.00, 1006.4,    0.1, -999.0
10-12-2022, 00:04:52,    251,    0.0,   -3.5,   0.00,   0.00, 1006.4,    0.1, -999.0
10-12-2022, 00:05:03,    251,    0.0,   -3.5,   0.00,   0.00, 1006.4,    0.2, -999.0
10-12-2022, 00:05:13,    251,    0.0,   -3.4,   0.00,   0.00, 1006.4,    0.1, -999.0
10-12-2022, 00:05:22,    251,    0.0,   -3.5,   0.00,   0.00, 1006.4,    0.1, -999.0
10-12-2022, 00:05:33,    251,    0.0,   -3.4,   0.00,   0.00, 1006.4,    0.0, -999.0
10-12-2022, 00:05:43,    251,    0.0,   -3.5,   0.00,   0.00, 1006.4,    0.1, -999.0
10-12-2022, 00:05:52,    251,    0.0,   -3.5,   0.00,   0.00, 1006.4,    0.2, -999.0
10-12-2022, 00:06:02,    252,    0.0,   -3.5,   0.00,   0.00, 1006.4,    0.3, -999.0
10-12-2022, 00:06:13,    251,    0.0,   -3.5,   0.00,   0.00, 1006.4,    0.1, -999.0
10-12-2022, 00:06:23,    251,    0.0,   -3.5,   0.00,   0.00, 1006.4,    0.1, -999.0
10-12-2022, 00:06:32,    251,    0.0,   -3.5,   0.00,   0.00, 1006.4,    0.2, -999.0
10-12-2022, 00:06:42,    252,    0.0,   -3.5,   0.00,   0.00, 1006.4,    0.1, -999.0
10-12-2022, 00:06:52,    251,    0.0,   -3.4,   0.00,   0.00, 1006.5,    0.1, -999.0
10-12-2022, 00:07:02,    251,    0.1,   -3.5,   0.00,   0.00, 1006.5,    0.2, -999.0
10-12-2022, 00:07:12,    252,    0.0,   -3.4,   0.00,   0.00, 1006.4,    0.2, -999.0
10-12-2022, 00:07:22,    251,    0.0,   -3.5,   0.00,   0.00, 1006.4,    0.1, -999.0
10-12-2022, 00:07:32,    251,    0.0,   -3.4,   0.00,   0.00, 1006.5,    0.1, -999.0
10-12-2022, 00:07:42,    251,    0.0,   -3.4,   0.00,   0.00, 1006.4,    0.1, -999.0
10-12-2022, 00:07:52,    251,    0.0,   -3.5,   0.00,   0.00, 1006.5,    0.1, -999.0
10-12-2022, 00:08:02,    251,    0.0,   -3.5,   0.00,   0.00, 1006.4,    0.1, -999.0
10-12-2022, 00:08:12,    251,    0.0,   -3.5,   0.00,   0.00, 1006.4,    0.1, -999.0
10-12-2022, 00:08:22,    251,    0.0,   -3.5,   0.00,   0.00, 1006.4,    0.2, -999.0
10-12-2022, 00:08:32,    251,    0.0,   -3.5,   0.00,   0.00, 1006.5,    0.1, -999.0
10-12-2022, 00:08:42,    251,    0.0,   -3.5,   0.00,   0.00, 1006.5,    0.2, -999.0
10-12-2022, 00:08:52,    251,    0.0,   -3.5,   0.00,   0.00, 1006.5,    0.0, -999.0
10-12-2022, 00:09:02,    251,    0.0,   -3.5,   0.00,   0.00, 1006.4,    0.0, -999.0
10-12-2022, 00:09:12,    251,    0.0,   -3.5,   0.00,   0.00, 1006.4,    0.2, -999.0
10-12-2022, 00:09:22,    251,    0.0,   -3.5,   0.00,   0.00, 1006.5,    0.0, -999.0
10-12-2022, 00:09:32,    251,    0.0,   -3.5,   0.00,   0.00, 1006.5,    0.0, -999.0
10-12-2022, 00:09:42,    251,    0.0,   -3.5,   0.00,   0.00, 1006.5,    0.1, -999.0
10-12-2022, 00:09:52,    251,    0.0,   -3.6,   0.00,   0.00, 1006.5,    0.0, -999.0
10-12-2022, 00:10:02,    251,    0.0,   -3.6,   0.00,   0.00, 1006.5,    0.3, -999.0
10-12-2022, 00:10:12,    251,    0.0,   -3.6,   0.00,   0.00, 1006.4,    0.0, -999.0
10-12-2022, 00:10:22,    251,    0.0,   -3.5,   0.00,   0.00, 1006.5,    0.4, -999.0
10-12-2022, 00:10:33,    251,    0.0,   -3.6,   0.00,   0.00, 1006.5,    0.1, -999.0
10-12-2022, 00:10:42,    252,    0.0,   -3.5,   0.00,   0.00, 1006.4,    0.3, -999.0
10-12-2022, 00:10:52,    251,    0.0,   -3.6,   0.00,   0.00, 1006.4,    0.0, -999.0
10-12-2022, 00:11:02,    251,    0.0,   -3.5,   0.00,   0.00, 1006.4,    0.2, -999.0
10-12-2022, 00:11:12,    251,    0.0,   -3.5,   0.00,   0.00, 1006.5,    0.0, -999.0
10-12-2022, 00:11:22,    253,    0.4,   -3.4,   0.00,   0.00, 1006.5,    0.0, -999.0
10-12-2022, 00:11:32,    254,    0.2,   -3.5,   0.00,   0.00, 1006.5,    0.2, -999.0
10-12-2022, 00:11:42,    254,    0.0,   -3.5,   0.00,   0.00, 1006.4,    0.1, -999.0
10-12-2022, 00:11:52,    254,    0.0,   -3.5,   0.00,   0.00, 1006.4,    0.1, -999.0
10-12-2022, 00:12:02,    254,    0.0,   -3.5,   0.00,   0.00, 1006.4,    0.2, -999.0
10-12-2022, 00:12:12,    254,    0.0,   -3.5,   0.00,   0.00, 1006.4,    0.0, -999.0
10-12-2022, 00:12:22,    254,    0.0,   -3.6,   0.00,   0.00, 1006.4,    0.1, -999.0
10-12-2022, 00:12:32,    254,    0.0,   -3.6,   0.00,   0.00, 1006.4,    0.1, -999.0
10-12-2022, 00:12:42,    253,    0.0,   -3.6,   0.00,   0.00, 1006.4,    0.0, -999.0
10-12-2022, 00:12:52,    253,    0.0,   -3.5,   0.00,   0.00, 1006.4,    0.2, -999.0
10-12-2022, 00:13:02,    254,    0.0,   -3.6,   0.00,   0.00, 1006.4,    0.1, -999.0
10-12-2022, 00:13:12,    254,    0.0,   -3.5,   0.00,   0.00, 1006.5,    0.2, -999.0
10-12-2022, 00:13:21,    254,    0.0,   -3.6,   0.00,   0.00, 1006.4,    0.2, -999.0
10-12-2022, 00:13:32,    254,    0.0,   -3.6,   0.00,   0.00, 1006.5,    0.1, -999.0
10-12-2022, 00:13:42,    254,    0.0,   -3.6,   0.00,   0.00, 1006.5,    0.2, -999.0
10-12-2022, 00:13:52,    254,    0.0,   -3.6,   0.00,   0.00, 1006.5,    0.1, -999.0
10-12-2022, 00:14:01,    254,    0.0,   -3.5,   0.00,   0.00, 1006.5,    0.0, -999.0
10-12-2022, 00:14:12,    255,    0.0,   -3.6,   0.00,   0.00, 1006.4,    0.2, -999.0
10-12-2022, 00:14:22,    255,    0.0,   -3.6,   0.00,   0.00, 1006.5,    0.1, -999.0
10-12-2022, 00:14:31,    254,    0.0,   -3.6,   0.00,   0.00, 1006.4,    0.3, -999.0
10-12-2022, 00:14:42,    254,    0.0,   -3.6,   0.00,   0.00, 1006.4,    0.2, -999.0
10-12-2022, 00:14:52,    254,    0.0,   -3.6,   0.00,   0.00, 1006.5,    0.1, -999.0
10-12-2022, 00:15:01,    255,    0.0,   -3.6,   0.00,   0.00, 1006.5,    0.1, -999.0
10-12-2022, 00:15:11,    254,    0.0,   -3.6,   0.00,   0.00, 1006.5,    0.1, -999.0
10-12-2022, 00:15:22,    255,    0.0,   -3.6,   0.00,   0.00, 1006.5,    0.1, -999.0
10-12-2022, 00:15:32,    255,    0.0,   -3.6,   0.00,   0.00, 1006.5,    0.1, -999.0
10-12-2022, 00:15:41,    255,    0.0,   -3.6,   0.00,   0.00, 1006.5,    0.0, -999.0
10-12-2022, 00:15:51,    255,    0.0,   -3.5,   0.00,   0.00, 1006.5,    0.0, -999.0
10-12-2022, 00:16:02,    254,    0.0,   -3.6,   0.00,   0.00, 1006.5,    0.1, -999.0
10-12-2022, 00:16:11,    255,    0.0,   -3.5,   0.00,   0.00, 1006.5,    0.2, -999.0
10-12-2022, 00:16:21,    255,    0.0,   -3.6,   0.00,   0.00, 1006.5,    0.1, -999.0
10-12-2022, 00:16:31,    255,    0.0,   -3.6,   0.00,   0.00, 1006.5,    0.1, -999.0
10-12-2022, 00:16:42,    255,    0.0,   -3.6,   0.00,   0.00, 1006.5,    0.1, -999.0
10-12-2022, 00:16:51,    255,    0.0,   -3.6,   0.00,   0.00, 1006.5,    0.1, -999.0
10-12-2022, 00:17:01,    255,    0.0,   -3.6,   0.00,   0.00, 1006.5,    0.0, -999.0
10-12-2022, 00:17:11,    255,    0.0,   -3.6,   0.00,   0.00, 1006.5,    0.2, -999.0
10-12-2022, 00:17:21,    255,    0.0,   -3.6,   0.00,   0.00, 1006.5,    0.2, -999.0
10-12-2022, 00:17:31,    255,    0.0,   -3.6,   0.00,   0.00, 1006.5,    0.1, -999.0
10-12-2022, 00:17:41,    254,    0.0,   -3.6,   0.00,   0.00, 1006.5,    0.0, -999.0
10-12-2022, 00:17:51,    255,    0.0,   -3.6,   0.00,   0.00, 1006.5,    0.1, -999.0
10-12-2022, 00:18:01,    255,    0.0,   -3.6,   0.00,   0.00, 1006.5,    0.0, -999.0
10-12-2022, 00:18:11,    255,    0.0,   -3.7,   0.00,   0.00, 1006.5,    0.0, -999.0
10-12-2022, 00:18:21,    255,    0.0,   -3.6,   0.00,   0.00, 1006.5,    0.1, -999.0
10-12-2022, 00:18:31,    255,    0.0,   -3.6,   0.00,   0.00, 1006.5,    0.3, -999.0
10-12-2022, 00:18:41,    254,    0.0,   -3.5,   0.00,   0.00, 1006.5,    0.1, -999.0
10-12-2022, 00:18:51,    255,    0.0,   -3.6,   0.00,   0.00, 1006.5,    0.1, -999.0
10-12-2022, 00:19:01,    255,    0.0,   -3.6,   0.00,   0.00, 1006.5,    0.2, -999.0
10-12-2022, 00:19:11,    255,    0.0,   -3.6,   0.00,   0.00, 1006.5,    0.0, -999.0
10-12-2022, 00:19:21,    255,    0.0,   -3.7,   0.00,   0.00, 1006.5,    0.1, -999.0
10-12-2022, 00:19:31,    255,    0.0,   -3.5,   0.00,   0.00, 1006.5,    0.1, -999.0
10-12-2022, 00:19:41,    255,    0.0,   -3.6,   0.00,   0.00, 1006.5,    0.1, -999.0
10-12-2022, 00:19:51,    255,    0.0,   -3.5,   0.00,   0.00, 1006.5,    0.0, -999.0
10-12-2022, 00:20:01,    255,    0.0,   -3.6,   0.00,   0.00, 1006.5,    0.1, -999.0
10-12-2022, 00:20:11,    255,    0.0,   -3.5,   0.00,   0.00, 1006.5,    0.1, -999.0
10-12-2022, 00:20:21,    255,    0.0,   -3.6,   0.00,   0.00, 1006.5,    0.0, -999.0
10-12-2022, 00:20:31,    255,    0.0,   -3.7,   0.00,   0.00, 1006.5,    0.1, -999.0
10-12-2022, 00:20:41,    256,    0.0,   -3.6,   0.00,   0.00, 1006.5,    0.1, -999.0
10-12-2022, 00:20:51,    255,    0.0,   -3.6,   0.00,   0.00, 1006.5,    0.1, -999.0
10-12-2022, 00:21:01,    255,    0.0,   -3.6,   0.00,   0.00, 1006.4,    0.1, -999.0
10-12-2022, 00:21:11,    255,    0.0,   -3.7,   0.00,   0.00, 1006.5,    0.1, -999.0
10-12-2022, 00:21:21,    255,    0.0,   -3.6,   0.00,   0.00, 1006.5,    0.1, -999.0
10-12-2022, 00:21:31,    255,    0.0,   -3.6,   0.00,   0.00, 1006.5,    0.1, -999.0
10-12-2022, 00:21:41,    255,    0.0,   -3.6,   0.00,   0.00, 1006.5,    0.1, -999.0
10-12-2022, 00:21:51,    255,    0.0,   -3.6,   0.00,   0.00, 1006.5,    0.0, -999.0
10-12-2022, 00:22:01,    255,    0.0,   -3.6,   0.00,   0.00, 1006.5,    0.1, -999.0
10-12-2022, 00:22:11,    255,    0.0,   -3.6,   0.00,   0.00, 1006.5,    0.2, -999.0
10-12-2022, 00:22:20,    255,    0.0,   -3.6,   0.00,   0.00, 1006.5,    0.1, -999.0
10-12-2022, 00:22:31,    248,    0.0,   -3.5,   0.00,   0.00, 1006.5,    0.1, -999.0
10-12-2022, 00:22:41,    248,    0.0,   -3.6,   0.00,   0.00, 1006.5,    0.1, -999.0
10-12-2022, 00:22:51,    248,    0.0,   -3.5,   0.00,   0.00, 1006.5,    0.1, -999.0
10-12-2022, 00:23:00,    248,    0.0,   -3.6,   0.00,   0.00, 1006.4,    0.2, -999.0
10-12-2022, 00:23:11,    248,    0.0,   -3.6,   0.00,   0.00, 1006.4,    0.1, -999.0
10-12-2022, 00:23:21,    248,    0.0,   -3.6,   0.00,   0.00, 1006.4,    0.0, -999.0
10-12-2022, 00:23:30,    248,    0.0,   -3.5,   0.00,   0.00, 1006.4,    0.1, -999.0
10-12-2022, 00:23:41,    248,    0.0,   -3.5,   0.00,   0.00, 1006.4,    0.0, -999.0
10-12-2022, 00:23:51,    248,    0.0,   -3.6,   0.00,   0.00, 1006.5,    0.1, -999.0
10-12-2022, 00:24:00,    247,    0.0,   -3.5,   0.00,   0.00, 1006.5,    0.1, -999.0
10-12-2022, 00:24:10,    248,    0.0,   -3.6,   0.00,   0.00, 1006.5,    0.0, -999.0
10-12-2022, 00:24:21,    249,    0.0,   -3.5,   0.00,   0.00, 1006.5,    0.1, -999.0
10-12-2022, 00:24:31,    248,    0.0,   -3.6,   0.00,   0.00, 1006.4,    0.1, -999.0
10-12-2022, 00:24:40,    248,    0.0,   -3.6,   0.00,   0.00, 1006.5,    0.1, -999.0
10-12-2022, 00:24:50,    249,    0.0,   -3.6,   0.00,   0.00, 1006.5,    0.2, -999.0
10-12-2022, 00:25:01,    236,    0.5,   -3.5,   0.00,   0.00, 1006.6,    0.0, -999.0
10-12-2022, 00:25:10,    239,    0.2,   -3.5,   0.00,   0.00, 1006.5,    0.1, -999.0
10-12-2022, 00:25:20,    238,    0.8,   -3.5,   0.00,   0.00, 1006.6,    0.1, -999.0
10-12-2022, 00:25:30,    238,    0.0,   -3.6,   0.00,   0.00, 1006.5,    0.1, -999.0
10-12-2022, 00:25:41,    238,    0.0,   -3.6,   0.00,   0.00, 1006.4,    0.3, -999.0
10-12-2022, 00:25:50,    237,    0.0,   -3.6,   0.00,   0.00, 1006.5,    0.1, -999.0
10-12-2022, 00:26:00,    237,    0.0,   -3.5,   0.00,   0.00, 1006.5,    0.2, -999.0
10-12-2022, 00:26:10,    238,    0.0,   -3.5,   0.00,   0.00, 1006.5,    0.2, -999.0
10-12-2022, 00:26:20,    237,    0.0,   -3.6,   0.00,   0.00, 1006.4,    0.1, -999.0
10-12-2022, 00:26:30,    237,    0.0,   -3.6,   0.00,   0.00, 1006.5,    0.1, -999.0
10-12-2022, 00:26:40,    238,    0.0,   -3.6,   0.00,   0.00, 1006.5,    0.1, -999.0
10-12-2022, 00:26:50,    238,    0.0,   -3.6,   0.00,   0.00, 1006.5,    0.1, -999.0
10-12-2022, 00:27:00,    238,    0.0,   -3.6,   0.00,   0.00, 1006.4,    0.0, -999.0
10-12-2022, 00:27:10,    238,    0.0,   -3.6,   0.00,   0.00, 1006.5,    0.1, -999.0
10-12-2022, 00:27:20,    238,    0.0,   -3.6,   0.00,   0.00, 1006.5,    0.2, -999.0
10-12-2022, 00:27:30,    267,    0.0,   -3.6,   0.00,   0.00, 1006.5,    0.1, -999.0
10-12-2022, 00:27:40,    267,    0.0,   -3.6,   0.00,   0.00, 1006.5,    0.1, -999.0
10-12-2022, 00:27:50,    266,    0.0,   -3.6,   0.00,   0.00, 1006.5,    0.1, -999.0
10-12-2022, 00:28:00,    266,    0.0,   -3.6,   0.00,   0.00, 1006.5,    0.1, -999.0
10-12-2022, 00:28:10,    266,    0.0,   -3.6,   0.00,   0.00, 1006.5,    0.2, -999.0
10-12-2022, 00:28:20,    238,    0.1,   -3.6,   0.00,   0.00, 1006.5,    0.1, -999.0
10-12-2022, 00:28:30,    238,    0.2,   -3.5,   0.00,   0.00, 1006.5,    0.1, -999.0
10-12-2022, 00:28:40,    238,    0.0,   -3.6,   0.00,   0.00, 1006.5,    0.1, -999.0
10-12-2022, 00:28:50,    238,    0.0,   -3.6,   0.00,   0.00, 1006.5,    0.1, -999.0
10-12-2022, 00:29:00,    238,    0.0,   -3.6,   0.00,   0.00, 1006.5,    0.1, -999.0
10-12-2022, 00:29:10,    235,    0.0,   -3.6,   0.00,   0.00, 1006.4,    0.1, -999.0
10-12-2022, 00:29:20,    235,    0.1,   -3.5,   0.00,   0.00, 1006.5,    0.1, -999.0
10-12-2022, 00:29:30,    235,    0.0,   -3.6,   0.00,   0.00, 1006.5,    0.1, -999.0
10-12-2022, 00:29:40,    236,    0.1,   -3.5,   0.00,   0.00, 1006.5,    0.0, -999.0
10-12-2022, 00:29:50,    236,    0.0,   -3.6,   0.00,   0.00, 1006.4,    0.2, -999.0
10-12-2022, 00:30:00,    236,    0.0,   -3.7,   0.00,   0.00, 1006.4,    0.0, -999.0
10-12-2022, 00:30:10,    236,    0.0,   -3.7,   0.00,   0.00, 1006.4,    0.0, -999.0
10-12-2022, 00:30:20,    236,    0.0,   -3.7,   0.00,   0.00, 1006.5,    0.0, -999.0
10-12-2022, 00:30:30,    236,    0.0,   -3.7,   0.00,   0.00, 1006.4,    0.1, -999.0
10-12-2022, 00:30:40,    235,    0.0,   -3.7,   0.00,   0.00, 1006.4,    0.1, -999.0
10-12-2022, 00:30:50,    236,    0.0,   -3.7,   0.00,   0.00, 1006.5,    0.2, -999.0
10-12-2022, 00:31:00,    236,    0.0,   -3.6,   0.00,   0.00, 1006.4,    0.1, -999.0
10-12-2022, 00:31:10,    235,    0.0,   -3.6,   0.00,   0.00, 1006.4,    0.2, -999.0
10-12-2022, 00:31:20,    234,    0.0,   -3.6,   0.00,   0.00, 1006.5,    0.2, -999.0
10-12-2022, 00:31:30,    235,    0.0,   -3.6,   0.00,   0.00, 1006.4,    0.2, -999.0
10-12-2022, 00:31:40,    235,    0.0,   -3.6,   0.00,   0.00, 1006.4,    0.1, -999.0
10-12-2022, 00:31:50,    234,    0.0,   -3.6,   0.00,   0.00, 1006.4,    0.0, -999.0
10-12-2022, 00:31:59,    234,    0.0,   -3.7,   0.00,   0.00, 1006.4,    0.0, -999.0
10-12-2022, 00:32:10,    234,    0.0,   -3.7,   0.00,   0.00, 1006.4,    0.1, -999.0
10-12-2022, 00:32:20,    234,    0.0,   -3.7,   0.00,   0.00, 1006.4,    0.0, -999.0
10-12-2022, 00:32:29,    234,    0.0,   -3.8,   0.00,   0.00, 1006.4,    0.0, -999.0
10-12-2022, 00:32:40,    234,    0.0,   -3.6,   0.00,   0.00, 1006.4,    0.1, -999.0
10-12-2022, 00:32:50,    234,    0.0,   -3.6,   0.00,   0.00, 1006.4,    0.2, -999.0
10-12-2022, 00:33:00,    233,    0.0,   -3.7,   0.00,   0.00, 1006.4,    0.1, -999.0
10-12-2022, 00:33:09,    235,    0.2,   -3.7,   0.00,   0.00, 1006.5,    0.3, -999.0
10-12-2022, 00:33:20,    234,    0.0,   -3.6,   0.00,   0.00, 1006.4,    0.1, -999.0
10-12-2022, 00:33:30,    234,    0.0,   -3.7,   0.00,   0.00, 1006.4,    0.1, -999.0
10-12-2022, 00:33:39,    234,    0.0,   -3.7,   0.00,   0.00, 1006.4,    0.1, -999.0
10-12-2022, 00:33:49,    234,    0.0,   -3.7,   0.00,   0.00, 1006.4,    0.2, -999.0
10-12-2022, 00:34:00,    234,    0.0,   -3.8,   0.00,   0.00, 1006.4,    0.0, -999.0
10-12-2022, 00:34:09,    235,    0.0,   -3.8,   0.00,   0.00, 1006.4,    0.1, -999.0
10-12-2022, 00:34:19,    234,    0.0,   -3.8,   0.00,   0.00, 1006.4,    0.1, -999.0
10-12-2022, 00:34:29,    234,    0.0,   -3.7,   0.00,   0.00, 1006.4,    0.0, -999.0
10-12-2022, 00:34:40,    234,    0.0,   -3.7,   0.00,   0.00, 1006.4,    0.1, -999.0
10-12-2022, 00:34:49,    235,    0.0,   -3.8,   0.00,   0.00, 1006.4,    0.1, -999.0
10-12-2022, 00:34:59,    234,    0.0,   -3.7,   0.00,   0.00, 1006.4,    0.0, -999.0
10-12-2022, 00:35:09,    234,    0.0,   -3.8,   0.00,   0.00, 1006.4,    0.1, -999.0
10-12-2022, 00:35:19,    235,    0.0,   -3.7,   0.00,   0.00, 1006.4,    0.1, -999.0
10-12-2022, 00:35:29,    235,    0.0,   -3.7,   0.00,   0.00, 1006.5,    0.0, -999.0
10-12-2022, 00:35:39,    234,    0.0,   -3.7,   0.00,   0.00, 1006.4,    0.1, -999.0
10-12-2022, 00:35:50,    234,    0.0,   -3.7,   0.00,   0.00, 1006.5,    0.2, -999.0
10-12-2022, 00:35:59,    234,    0.0,   -3.7,   0.00,   0.00, 1006.5,    0.1, -999.0
10-12-2022, 00:36:09,    235,    0.0,   -3.8,   0.00,   0.00, 1006.5,    0.2, -999.0
10-12-2022, 00:36:19,    234,    0.0,   -3.7,   0.00,   0.00, 1006.4,    0.3, -999.0
10-12-2022, 00:36:29,    234,    0.0,   -3.7,   0.00,   0.00, 1006.4,    0.2, -999.0
10-12-2022, 00:36:39,    235,    0.0,   -3.8,   0.00,   0.00, 1006.5,    0.1, -999.0
10-12-2022, 00:36:49,    235,    0.0,   -3.7,   0.00,   0.00, 1006.4,    0.1, -999.0
10-12-2022, 00:36:59,    234,    0.0,   -3.7,   0.00,   0.00, 1006.4,    0.2, -999.0
10-12-2022, 00:37:09,    235,    0.0,   -3.7,   0.00,   0.00, 1006.4,    0.0, -999.0
10-12-2022, 00:37:19,    235,    0.0,   -3.9,   0.00,   0.00, 1006.4,    0.1, -999.0
10-12-2022, 00:37:29,    235,    0.0,   -3.8,   0.00,   0.00, 1006.4,    0.3, -999.0
10-12-2022, 00:37:39,    234,    0.0,   -3.8,   0.00,   0.00, 1006.4,    0.1, -999.0
10-12-2022, 00:37:49,    235,    0.0,   -3.9,   0.00,   0.00, 1006.4,    0.1, -999.0
10-12-2022, 00:37:59,    235,    0.0,   -3.7,   0.00,   0.00, 1006.4,    0.0, -999.0
10-12-2022, 00:38:09,    235,    0.0,   -3.7,   0.00,   0.00, 1006.4,    0.1, -999.0
10-12-2022, 00:38:19,    234,    0.0,   -3.7,   0.00,   0.00, 1006.4,    0.1, -999.0
10-12-2022, 00:38:29,    235,    0.1,   -3.7,   0.00,   0.00, 1006.5,    0.0, -999.0
10-12-2022, 00:38:39,    235,    0.0,   -3.7,   0.00,   0.00, 1006.4,    0.2, -999.0
10-12-2022, 00:38:49,    235,    0.0,   -3.7,   0.00,   0.00, 1006.4,    0.1, -999.0
10-12-2022, 00:38:59,    250,    0.3,   -3.7,   0.00,   0.00, 1006.5,    0.0, -999.0
10-12-2022, 00:39:10,    249,    0.0,   -3.7,   0.00,   0.00, 1006.4,    0.1, -999.0
10-12-2022, 00:39:19,    249,    0.0,   -3.7,   0.00,   0.00, 1006.4,    0.1, -999.0
10-12-2022, 00:39:29,    250,    0.1,   -3.7,   0.00,   0.00, 1006.4,    0.2, -999.0
10-12-2022, 00:39:39,    249,    0.4,   -3.6,   0.00,   0.00, 1006.5,    0.0, -999.0
10-12-2022, 00:39:49,    249,    0.4,   -3.6,   0.00,   0.00, 1006.5,    0.2, -999.0
10-12-2022, 00:39:59,    242,    0.1,   -3.6,   0.00,   0.00, 1006.5,    0.2, -999.0
10-12-2022, 00:40:09,    242,    0.1,   -3.7,   0.00,   0.00, 1006.4,    0.0, -999.0
10-12-2022, 00:40:19,    242,    0.0,   -3.7,   0.00,   0.00, 1006.4,    0.1, -999.0
10-12-2022, 00:40:29,    241,    0.0,   -3.6,   0.00,   0.00, 1006.4,    0.1, -999.0
10-12-2022, 00:40:39,    242,    0.0,   -3.7,   0.00,   0.00, 1006.4,    0.1, -999.0
10-12-2022, 00:40:49,    242,    0.0,   -3.7,   0.00,   0.00, 1006.4,    0.1, -999.0
10-12-2022, 00:40:59,    242,    0.0,   -3.6,   0.00,   0.00, 1006.4,    0.1, -999.0
10-12-2022, 00:41:09,    242,    0.0,   -3.6,   0.00,   0.00, 1006.4,    0.1, -999.0
10-12-2022, 00:41:19,    242,    0.0,   -3.7,   0.00,   0.00, 1006.4,    0.0, -999.0
10-12-2022, 00:41:28,    242,    0.0,   -3.6,   0.00,   0.00, 1006.4,    0.1, -999.0
10-12-2022, 00:41:39,    242,    0.0,   -3.7,   0.00,   0.00, 1006.4,    0.1, -999.0
10-12-2022, 00:41:49,    242,    0.2,   -3.6,   0.00,   0.00, 1006.5,    0.1, -999.0
10-12-2022, 00:41:59,    242,    0.0,   -3.7,   0.00,   0.00, 1006.4,    0.1, -999.0
10-12-2022, 00:42:08,    242,    0.0,   -3.7,   0.00,   0.00, 1006.4,    0.0, -999.0
10-12-2022, 00:42:19,    242,    0.0,   -3.7,   0.00,   0.00, 1006.4,    0.1, -999.0
10-12-2022, 00:42:29,    242,    0.0,   -3.7,   0.00,   0.00, 1006.4,    0.1, -999.0
10-12-2022, 00:42:38,    242,    0.0,   -3.6,   0.00,   0.00, 1006.4,    0.1, -999.0
10-12-2022, 00:42:49,    242,    0.0,   -3.7,   0.00,   0.00, 1006.4,    0.1, -999.0
10-12-2022, 00:42:59,    242,    0.0,   -3.6,   0.00,   0.00, 1006.4,    0.0, -999.0
10-12-2022, 00:43:08,    242,    0.0,   -3.7,   0.00,   0.00, 1006.4,    0.1, -999.0
10-12-2022, 00:43:18,    242,    0.0,   -3.6,   0.00,   0.00, 1006.4,    0.1, -999.0
10-12-2022, 00:43:29,    241,    0.0,   -3.6,   0.00,   0.00, 1006.4,    0.2, -999.0
10-12-2022, 00:43:39,    241,    0.0,   -3.7,   0.00,   0.00, 1006.4,    0.1, -999.0
10-12-2022, 00:43:48,    242,    0.0,   -3.7,   0.00,   0.00, 1006.4,    0.1, -999.0
10-12-2022, 00:43:58,    242,    0.0,   -3.6,   0.00,   0.00, 1006.4,    0.0, -999.0
10-12-2022, 00:44:09,    242,    0.0,   -3.7,   0.00,   0.00, 1006.4,    0.1, -999.0
10-12-2022, 00:44:18,    242,    0.0,   -3.7,   0.00,   0.00, 1006.4,    0.1, -999.0
10-12-2022, 00:44:28,    242,    0.0,   -3.7,   0.00,   0.00, 1006.4,    0.0, -999.0
10-12-2022, 00:44:38,    242,    0.0,   -3.7,   0.00,   0.00, 1006.4,    0.2, -999.0
10-12-2022, 00:44:48,    242,    0.0,   -3.8,   0.00,   0.00, 1006.4,    0.1, -999.0
10-12-2022, 00:44:58,    242,    0.0,   -3.7,   0.00,   0.00, 1006.4,    0.1, -999.0
10-12-2022, 00:45:08,    240,    0.1,   -3.6,   0.00,   0.00, 1006.5,    0.1, -999.0
10-12-2022, 00:45:18,    239,    0.0,   -3.7,   0.00,   0.00, 1006.4,    0.1, -999.0
10-12-2022, 00:45:28,    236,    0.0,   -3.7,   0.00,   0.00, 1006.4,    0.1, -999.0
10-12-2022, 00:45:38,    236,    0.0,   -3.7,   0.00,   0.00, 1006.4,    0.1, -999.0
10-12-2022, 00:45:48,    236,    0.0,   -3.6,   0.00,   0.00, 1006.4,    0.3, -999.0
10-12-2022, 00:45:58,    236,    0.0,   -3.6,   0.00,   0.00, 1006.4,    0.0, -999.0
10-12-2022, 00:46:08,    236,    0.0,   -3.6,   0.00,   0.00, 1006.4,    0.1, -999.0
10-12-2022, 00:46:18,    236,    0.0,   -3.7,   0.00,   0.00, 1006.4,    0.0, -999.0
10-12-2022, 00:46:28,    236,    0.0,   -3.6,   0.00,   0.00, 1006.4,    0.1, -999.0
10-12-2022, 00:46:38,    236,    0.0,   -3.6,   0.00,   0.00, 1006.4,    0.1, -999.0
10-12-2022, 00:46:48,    236,    0.0,   -3.6,   0.00,   0.00, 1006.4,    0.1, -999.0